This is the latest recevied weather packets stored in our database for station/object K4HOG. If no packets are shown the sender has not sent any weather packets the latest 10 day(s).
| Time | Temp. | Humidity | Pressure | Rain* | Wind** | Luminosity | Snow |
|---|---|---|---|---|---|---|---|
| 1777893904 | 13.89° C | 98% | 1016.8 hPa | 0 mm | - | 31 W/m² | - |
| 1777893600 | 13.33° C | 98% | 1017 hPa | 0 mm | - | 27 W/m² | - |
| 1777893296 | 12.78° C | 98% | 1016.7 hPa | 0 mm | - | 22 W/m² | - |
| 1777892993 | 12.78° C | 98% | 1016.6 hPa | 0 mm | - | 15 W/m² | - |
| 1777892690 | 12.78° C | 97% | 1016.7 hPa | 0 mm | - | 12 W/m² | - |
| 1777892386 | 12.78° C | 97% | 1016.7 hPa | 0 mm | - | 9 W/m² | - |
| 1777892082 | 12.78° C | 97% | 1016.7 hPa | 0 mm | - | 7 W/m² | - |
| 1777891780 | 12.78° C | 97% | 1016.5 hPa | 0 mm | - | 4 W/m² | - |
| 1777891476 | 12.78° C | 97% | 1016.6 hPa | 0 mm | - | 2 W/m² | - |
| 1777891172 | 12.78° C | 97% | 1016.7 hPa | 0 mm | - | 1 W/m² | - |
| 1777890872 | 12.78° C | 97% | 1016.4 hPa | 0 mm | - | 0 W/m² | - |
| 1777890568 | 12.78° C | 97% | 1016.4 hPa | 0 mm | - | 0 W/m² | - |
| 1777890264 | 12.78° C | 97% | 1016.5 hPa | 0 mm | - | 0 W/m² | - |
| 1777889960 | 12.78° C | 97% | 1016.5 hPa | 0 mm | - | 0 W/m² | - |
| 1777889658 | 12.78° C | 97% | 1016.3 hPa | 0 mm | - | 0 W/m² | - |
| 1777889355 | 13.33° C | 97% | 1016.3 hPa | 0 mm | - | 0 W/m² | - |
| 1777889052 | 12.78° C | 97% | 1016.3 hPa | 0 mm | - | 0 W/m² | - |
| 1777888750 | 12.78° C | 97% | 1016.2 hPa | 0 mm | - | 0 W/m² | - |
| 1777888446 | 12.78° C | 97% | 1016.3 hPa | 0 mm | - | 0 W/m² | - |
| 1777888142 | 13.33° C | 97% | 1016.5 hPa | 0 mm | - | 0 W/m² | - |
| 1777887840 | 13.33° C | 96% | 1016.4 hPa | 0 mm | - | 0 W/m² | - |
| 1777887536 | 13.33° C | 96% | 1016.4 hPa | 0 mm | - | 0 W/m² | - |
| 1777887232 | 13.33° C | 96% | 1016.3 hPa | 0 mm | - | 0 W/m² | - |
| 1777886928 | 13.33° C | 97% | 1016.4 hPa | 0 mm | - | 0 W/m² | - |
| 1777886623 | 13.33° C | 96% | 1016.5 hPa | 0 mm | - | 0 W/m² | - |
* Rain latest hour (hover to see other rain measurements)
** Current wind speed in m/s (hover to see current wind gust speed)